IZ0VWB-3 Weather Reports


time (UTC)temp
C
wind
direction
speed
KPH
gust
KPH
rain 1hr
cm
rain 24hr
cm
rain mn
cm
humidity
%
barometer
mb
20260503214846 12 146 1.6 1.6 0.00 0.00 0.00 81 1006.2
20260503213847 12 128 1.6 3.2 0.00 0.00 0.00 81 1006.3
20260503212848 12 135 1.6 3.2 0.00 0.00 0.00 81 1006.3
20260503211846 12 126 3.2 3.2 0.00 0.00 0.00 80 1006.2
20260503210846 12 92 4.8 6.4 0.00 0.00 0.00 78 1006.2
20260503205846 13 135 0.0 0.0 0.00 0.00 0.00 78 1006.2
20260503204846 13 235 0.0 1.6 0.00 0.00 0.00 78 1006.2
20260503203845 13 270 3.2 3.2 0.00 0.00 0.00 77 1006.2
20260503202846 14 205 1.6 3.2 0.00 0.00 0.00 76 1006.2
20260503201846 14 281 0.0 1.6 0.00 0.00 0.00 74 1006.1
20260503200845 15 266 3.2 8.0 0.00 0.00 0.00 74 1005.9
20260503195845 15 231 4.8 4.8 0.00 0.00 0.00 74 1006.0
20260503194845 15 211 6.4 6.4 0.00 0.00 0.00 72 1005.8
20260503193846 15 214 3.2 6.4 0.00 0.00 0.00 70 1005.7
20260503192846 15 248 0.0 1.6 0.00 0.00 0.00 70 1005.6
20260503191846 15 270 0.0 0.0 0.00 0.00 0.00 70 1005.5
20260503190845 16 68 0.0 0.0 0.00 0.00 0.00 68 1005.4
20260503185846 16 322 1.6 3.2 0.00 0.00 0.00 68 1005.3
20260503184846 16 112 3.2 3.2 0.00 0.00 0.00 67 1005.2
20260503183847 16 101 1.6 4.8 0.00 0.00 0.00 67 1005.0
20260503182845 16 250 12.9 19.3 0.00 0.00 0.00 66 1004.7
20260503181846 17 225 12.9 19.3 0.00 0.00 0.00 65 1004.6
20260503180844 17 234 11.3 12.9 0.00 0.00 0.00 63 1004.7
20260503175845 18 255 12.9 14.5 0.00 0.00 0.00 59 1004.5
20260503174846 18 232 14.5 19.3 0.00 0.00 0.00 54 1004.5
20260503173844 18 248 9.7 22.5 0.00 0.00 0.00 54 1004.5
20260503172845 18 226 9.7 11.3 0.00 0.00 0.00 53 1004.4
20260503171845 18 238 6.4 11.3 0.00 0.00 0.00 53 1004.4
20260503170839 19 234 9.7 11.3 0.00 0.00 0.00 53 1004.4
20260503150839 22 236 9.7 11.3 0.00 0.00 0.00 50 1005.0
20260503130906 23 234 12.9 14.5 0.00 0.00 0.00 44 1006.2
20260503090240 18 104 3.2 6.4 0.00 0.00 0.00 62 1007.6
20260503081240 16 116 6.4 8.0 0.00 0.00 0.00 69 1007.8
20260503080239 16 104 6.4 6.4 0.00 0.00 0.00 70 1007.8
20260503072238 15 127 6.4 8.0 0.00 0.00 0.00 71 1007.8
20260503071239 15 114 6.4 6.4 0.00 0.00 0.00 71 1008.0
20260503070240 15 105 0.0 1.6 0.00 0.00 0.00 70 1008.1
20260503054839 13 96 1.6 3.2 0.00 0.00 0.00 79 1008.0
20260503053838 13 315 1.6 1.6 0.00 0.00 0.00 80 1008.0
20260503052839 13 68 0.0 0.0 0.00 0.00 0.00 82 1007.9
20260503051839 12 90 0.0 0.0 0.00 0.00 0.00 83 1007.9
20260503050840 11 269 0.0 0.0 0.00 0.00 0.00 83 1007.8
20260503045841 10 248 0.0 0.0 0.00 0.00 0.00 83 1007.8
20260503044839 9 248 0.0 0.0 0.00 0.00 0.00 83 1008.0
20260503043839 8 270 0.0 0.0 0.00 0.00 0.00 84 1007.8
20260503042839 8 202 3.2 3.2 0.00 0.00 0.00 83 1007.7
20260503041840 8 315 1.6 1.6 0.00 0.00 0.00 83 1007.7
20260503040839 8 135 0.0 0.0 0.00 0.00 0.00 83 1007.6
20260503035839 8 135 0.0 0.0 0.00 0.00 0.00 82 1007.7
20260503034840 8 122 1.6 3.2 0.00 0.00 0.00 82 1007.5
20260503033841 9 202 0.0 0.0 0.00 0.00 0.00 82 1007.6
20260503032839 8 158 0.0 0.0 0.00 0.00 0.00 81 1007.5
20260503031839 8 170 0.0 0.0 0.00 0.00 0.00 81 1007.6
20260503030839 8 135 0.0 0.0 0.00 0.00 0.00 81 1007.6
20260503025840 8 180 0.0 0.0 0.00 0.00 0.00 81 1007.6
20260503024840 8 202 0.0 0.0 0.00 0.00 0.00 81 1007.5
20260503023840 8 202 0.0 0.0 0.00 0.00 0.00 80 1007.5
20260503022840 8 128 3.2 3.2 0.00 0.00 0.00 79 1007.5
20260503021838 8 166 0.0 0.0 0.00 0.00 0.00 80 1007.6
20260503020839 8 202 0.0 0.0 0.00 0.00 0.00 79 1007.7
20260503015839 8 202 0.0 0.0 0.00 0.00 0.00 79 1007.7
20260503014840 9 248 0.0 3.2 0.00 0.00 0.00 78 1007.6
20260503013838 9 270 0.0 0.0 0.00 0.00 0.00 77 1007.7
20260503012839 9 270 0.0 0.0 0.00 0.00 0.00 76 1007.7
20260503011839 10 112 0.0 0.0 0.00 0.00 0.00 76 1007.8
20260503010836 10 153 0.0 1.6 0.00 0.00 0.00 75 1007.8
20260503005837 10 130 1.6 3.2 0.00 0.00 0.00 74 1007.9
20260503004836 10 180 0.0 0.0 0.00 0.00 0.00 74 1008.0
20260503003837 10 180 1.6 0.0 0.00 0.00 0.00 73 1008.1
20260503002837 11 152 0.0 0.0 0.00 0.00 0.00 72 1008.1
20260503001836 10 149 0.0 1.6 0.00 0.00 0.00 72 1008.3
20260503000837 11 150 0.0 0.0 0.00 0.00 0.00 71 1008.3
20260502235836 11 134 1.6 3.2 0.00 0.00 0.00 70 1008.2
20260502234836 11 147 0.0 0.0 0.00 0.00 0.00 70 1008.4
20260502233837 11 148 0.0 1.6 0.00 0.00 0.00 69 1008.4
20260502232837 11 145 1.6 1.6 0.00 0.00 0.00 69 1008.4
20260502231836 11 145 1.6 3.2 0.00 0.00 0.00 68 1008.5
20260502230837 11 139 1.6 1.6 0.00 0.00 0.00 68 1008.6
20260502225837 11 157 1.6 3.2 0.00 0.00 0.00 67 1008.6
20260502224837 12 141 0.0 1.6 0.00 0.00 0.00 67 1008.7
20260502223836 11 169 1.6 1.6 0.00 0.00 0.00 67 1008.8
20260502222836 11 158 0.0 0.0 0.00 0.00 0.00 66 1008.7
20260502221836 11 135 0.0 0.0 0.00 0.00 0.00 64 1008.7
20260502220836 11 135 0.0 0.0 0.00 0.00 0.00 64 1008.7
20260502215836 11 124 1.6 3.2 0.00 0.00 0.00 63 1008.7